Find Starlink 5969

NORAD ID: 55993 Int'l Des: 2023-042 Owner: SPXS Country: US Constellation: starlink operational
LEOCIRCULAR

リアルタイム位置

3D地球を読み込み中...

Starlink 5969について

説明を読み込み中...

次回通過

Passes for default location (London). Set your location on the main map for personalized predictions.

高度履歴

Loading altitude history...

軌道要素

1 55993U 23042H 26121.47235491 -.00000114 00000-0 54229-5 0 9993
2 55993 43.0035 121.3705 0001641 266.9550 93.1113 15.26742538170944
Epoch: May 1, 2026 • Age: 5 hours

現在のステータス

高度 489.3 km
速度 7.63 km/s
衛星直下点 40.95°N, 125.13°E
打ち上げ日 Mar 24, 2023
運用期間 3.1 years
タイプ internet

技術仕様

分類 Payload
質量 305.00 kg
乾燥質量 290.00 kg
総質量 305.00 kg
長さ 0.20 m
直径 2.80 m
スパン 9.00 m
形状 Box + pan
製造者 SPXS
バスタイプ Starlink
フェーズステータス In Orbit
所有者/国 SPXS/US

Most Searched